www.pogodaiklimat.ru

Погода и климат >> Архив погоды >> Казахстан >> Жосалы


АРХИВ ПОГОДЫ в Жосалы

Время (UTC), дата Ветер
(напр.,м/с)
 
Видим.   Явления Облачность Т
(С)
Тd
(С)
f
(%)
Тe
(С)
Тes
(С)
Комфортность P
(гПа)
Po
(гПа)
Тmin
(С)
Tmax
(С)
R
(мм)
R24
(мм)
S
(см)
18 15.03 СВ 7 н/о {метель} ясно +1.9 -4.6 62 -4 -4 1024.6 1011.7 +9.7
21 15.03 СВ 9 н/о ясно -1.1 -4.0 81 -9 -9 1024.5 1011.4
00 16.03 СВ 9 н/о ясно -2.6 -4.5 87 -11 -11 1024.6 1011.4
03 16.03 СВ 10 50 км 3/0
[Ci fib]
-3.0 -4.7 88 -12 -12 1023.8 1010.6
06 16.03 В 12-15
{15}
50 км 4/0
[Ci fib]
+3.1 -4.8 56 -4 -4 1023.2 1010.3 -3.0
09 16.03 В 15-20
{20}
50 км пыльный позёмок 8/0
[Ac lent Ci sp]
+7.8 -6.7 35 +2 +2 1020.6 1008.0
12 16.03 В 15-20
{20}
50 км пыльный позёмок 8/0
[Ac trans Ci sp]
+9.8 -7.8 28 +5 +5 1018.2 1005.7
15 16.03 В 14-18
{20}
н/о {метель} 10/0
[Ac trans Ci sp]
+6.7 -4.2 46 +1 +1 1017.7 1005.0 +10.3
18 16.03 В 15-20
{20}
н/о {метель} 10/0
[Ac und Ci sp]
+5.2 -5.7 45 -2 -2 1016.8 1004.0 +10.3
21 16.03 В 17-22
{22}
н/о 10/10 600 м
[Sc]
+3.1 -4.8 56 -5 -5 1015.1 1002.3
00 17.03 В 15-20
{22}
н/о 10/10 600 м
[Sc]
+2.9 -4.7 57 -5 -5 1013.9 1001.1
03 17.03 В 12-16
{20}
50 км {дождь} 10/10 600 м
[Sc]
+2.8 -2.7 67 -5 -5 1013.5 1000.7
06 17.03 В 12-15
{16}
50 км в посл. час ливневой дождь 8/8 600 м
[Cb calv]
+3.9 +2.4 90 -4 -4 1014.0 1001.3 +2.8 0.0
09 17.03 В 7
{15}
50 км 8/6 600 м
[Sc diur, vesp Ac cast Ci sp]
+8.8 +7.1 89 +5 +5 1013.0 1000.5
12 17.03 В 7 50 км {ливн. осадки} 9/9 600 м
[Cb calv]
+9.2 +8.0 92 +5 +5 1012.8 1000.4
15 17.03 В 3 н/о 3/3 600 м
[Sc diur, vesp]
+7.4 +6.5 94 +4 +4 1012.9 1000.4 +9.5
18 17.03 В 2 н/о 3/0
[Ci sp]
+5.1 +3.9 92 +2 +2 1014.4 1001.7 +9.5 2
21 17.03 В 4 н/о ясно +3.8 +2.8 93 -1 -1 1013.5 1000.8
00 18.03 В 5 н/о ясно +2.6 +1.6 93 -3 -3 1013.0 1000.2
03 18.03 В 5 50 км 3/0
[Ci sp]
+2.8 +1.2 89 -3 -2 1013.3 1000.5
06 18.03 В 9 50 км ясно +8.9 +5.3 78 +4 +5 1013.0 1000.5 +2.4
09 18.03 В 12-15
{15}
50 км 3/0
[Ci]
+15.4 +7.1 58 +13 +13 1012.3 1000.1
12 18.03 В 12-15
{15}
50 км 8/0
[Ci]
+16.1 +5.9 51 +14 +14 1012.7 1000.5
15 18.03 СВ 12-15
{15}
н/о 8/0
[Ci]
+12.2 +2.7 52 +9 +9 1013.5 1001.2 +16.2
18 18.03 С 13-16
{16}
н/о 10/0
[Cs]
+7.4 +0.9 63 +2 +2 1014.0 1001.5 +16.2
21 18.03 В 13-16
{16}
н/о 6/0
[Cs]
+3.9 -2.0 65 -3 -3 1014.9 1002.2
00 19.03 В 12-15
{16}
н/о ясно +1.5 -3.6 69 -6 -6 1015.3 1002.4
03 19.03 В 15-20
{20}
50 км 8/0
[Ci sp]
+0.9 -4.4 68 -8 -8 1016.6 1003.7
06 19.03 В 16-21
{21}
50 км 8/0
[Ci sp]
+4.8 -5.5 47 -2 -2 1017.2 1004.4 +0.5
09 19.03 В 16-21
{21}
50 км 6/0
[Ci sp]
+9.7 -4.7 36 +5 +5 1017.3 1004.8
12 19.03 С 16-21
{21}
50 км 6/0
[Ci sp]
+12.0 -9.0 22 +8 +8 1016.8 1004.4
15 19.03 В 12-15
{21}
н/о 6/0
[Ci sp]
+9.0 -5.4 36 +4 +4 1018.0 1005.4 +13.0
18 19.03 В 9
{15}
н/о 10/0
[Cs]
+5.9 -4.2 48 +1 +1 1018.7 1006.0 +13.0
21 19.03 В 6 н/о 8/0
[Cs]
+4.2 -4.4 54 -1 -1 1018.3 1005.5
00 20.03 В 6 н/о 4/0
[Ci sp]
+2.1 -3.2 68 -4 -4 1018.6 1005.8
03 20.03 В 5 50 км 4/0
[Ci sp]
+1.4 -2.7 74 -4 -4 1019.4 1006.5
06 20.03 В 5 50 км 4/0
[Ci sp]
+8.3 -1.7 49 +5 +10 1019.5 1006.9 +1.1
09 20.03 В 4 50 км 6/0
[Ci fib]
+14.6 +0.9 39 +14 +20 1018.6 1006.3
12 20.03 В 3 50 км 8/0
[Ac trans Ci sp]
+17.5 +0.2 31 +18 +19 1018.2 1006.1
15 20.03 В 2 н/о 6/0
[Ac trans Ci sp]
+11.6 -1.9 39 +11 +11 1019.1 1006.7 +18.5
18 20.03 В 1 н/о 9/0
[Ci sp]
+7.8 -0.7 55 +7 +7 1020.0 1007.4 +18.5
21 20.03 В 2 н/о 9/4 600 м
[Sc Ac trans Ci sp]
+6.6 -1.1 58 +5 +5 1019.6 1006.9
00 21.03 В 4 н/о 8/3 600 м
[Sc Ac trans Ci sp]
+4.2 -1.0 69 0 0 1019.9 1007.1
03 21.03 В 5 50 км 8/6 600 м
[Sc Ac trans]
+3.8 -2.1 65 -1 -1 1020.7 1007.9
06 21.03 В 5 50 км 8/4 600 м
[Sc Ac trans Ci sp]
+9.0 -1.4 48 +6 +8 1020.6 1008.0 +3.8
09 21.03 ЮВ 3 50 км 6/3 1000 м
[Cu med, cong Ac cast]
+17.3 +1.1 34 +17 +22 1019.2 1007.1
12 21.03 ЮВ 3 50 км в посл. час ливневой дождь 8/8 600 м
[Cb calv]
+18.7 +5.9 43 +19 +20 1018.4 1006.3
15 21.03 ЮВ 2 н/о 8/6 600 м
[Sc diur, vesp Ac cast]
+15.0 +4.5 49 +15 +15 1019.2 1006.9 +19.4
18 21.03 Ю 3 н/о 8/6 600 м
[Sc Ac trans]
+12.9 +5.1 59 +12 +12 1019.7 1007.3 +19.4 0.0
21 21.03 Ю 5 н/о 9/9 1000 м
[Cu med, cong]
+11.7 +5.6 66 +9 +9 1019.4 1007.0
00 22.03 Ю 5 н/о 8/8 600 м
[Sc]
+10.5 +5.0 69 +8 +8 1019.5 1007.0
03 22.03 Ю 3 50 км 9/9 600 м
[Sc]
+10.0 +5.0 71 +8 +8 1019.8 1007.3
06 22.03 Ю 7 50 км 6/3 600 м
[Sc Ac trans]
+15.3 +5.1 51 +14 +15 1019.6 1007.4 +1.0
09 22.03 З 3 50 км 8/8 1000 м
[Cu med, cong]
+16.6 +4.8 46 +16 +18 1018.6 1006.4
12 22.03 ЮЗ 3 50 км 8/4 1000 м
[Cu med, cong Ac cuf Ci]
+14.1 +5.6 57 +13 +14 1017.8 1005.5
15 22.03 Ю 1 н/о 4/4 600 м
[Sc diur, vesp]
+11.4 +5.8 68 +11 +11 1018.0 1005.6 +18.6

 

Местоположение метеостанции Жосалы (Кызылординская область, Казахстан): широта 45.50 долгота 64.08 высота над уровнем моря 103 м.

В архиве по умолчанию представлена погода в Жосалы за последнюю неделю. Архивные данные за месяц целиком и за предыдущие месяцы, начиная с января 2011 года, Вы можете получить, выбрав интересующий диапазон дат из раскрывающегося списка и нажав кнопку "Ввод!".


*Определитесь, кто Вы:
робот инопланетянин человек

Внимание! Время в таблицах - всемирное. Для получения местного времени необходимо прибавить поправку, которая равна 6 ч.

Смотрите также архив погоды в соседних городах и на ближайших метеорологических станциях:

Погода в Акае (Кызылординская область, Казахстан) (64 км)
Погода в Жалагаше (Кызылординская область, Казахстан) (66 км)
Погода в Караке (Кызылординская область, Казахстан) (99 км)
Погода в Кызылорде (Кызылординская область, Казахстан) (133 км)
Погода в Тасбугете (Кызылординская область, Казахстан) (140 км)
Погода в Казалинске (Кызылординская область, Казахстан) (155 км)
Погода в Ширик-Рабате (Кызылординская область, Казахстан) (184 км)
Погода в Каукее (Кызылординская область, Казахстан) (189 км)
Погода в Акбакае (Жамбылская область, Казахстан) (228 км)
Погода в Кульжамбае (Карагандинская область, Казахстан) (232 км)

Пояснения к столбцам:

Ветер - указаны скорость ветра в м/с - средняя за 10 мин, порывы в срок и между сроками (в фигурных скобках) и направление, откуда дует ветер: С - северный, СВ - северо-восточный, В - восточный, ЮВ - юго-восточный, Ю - южный, ЮЗ - юго-западный, З - западный, СЗ - северо-западный.
Видимость - горизонтальная дальность видимости в метрах или километрах. При видимости от 1 до 10 км при отсутствии осадков обычно наблюдается дымка, при ухудшении видимости до 1 км и менее - туман. В сухую погоду видимость может ухудшаться дымом, пылью или мглою.
Явления - указаны атмосферные явления, наблюдавшиеся в срок или в последний час перед сроком; фигурными скобками обозначены явления, наблюдавшиеся между сроками (за 1-3 часа до срока); квадратными скобками обозначены град или гололедные отложения с указанием их диаметра в мм.
Облачность - указаны через наклонную черту общая и нижняя облачность в баллах и высота нижней границы облаков в метрах; квадратными скобками обозначены формы облаков: Ci - перистые, Cs - перисто-слоистые, Cc - перисто-кучевые, Ac - высококучевые, As - высокослоистые, Sc - слоисто-кучевые, Ns - слоисто-дождевые, Cu - кучевые, Cb - кучево-дождевые. Подробнее классификацию облаков см. в Атласе облаков (PDF).
T - Температура воздуха - температура, измеренная на высоте 2 м над землей.
Td - Температура точки росы - температура, при понижении до которой содержащийся в воздухе водяной пар достигнет насыщения.
f - Относительная влажность воздуха - влажноcть воздуха, измеренная на высоте 2 м над землей.
Te - Эффективная температура - температура, которую ощущает одетый по сезону человек в тени. Характеристика душности погоды. При расчете учитывается влияние влажности воздуха и скорости ветра на теплоощущения человека.
Tes - Эффективная температура на солнце - температура, которую ощущает человек, с поправкой на солнечный нагрев. Характеристика знойности погоды. Зависит от высоты солнца над горизонтом, облачности и скорости ветра. Ночью, в пасмурную погоду, а также при ветре 12 м/с и более поправка равна нулю.
P - Атмосферное давление - приведенное к уровню моря атмосферное давление.
Po - Атмосферное давление - измеренное на уровне метеостанции атмосферное давление.
Tmin - Минимальная температура - минимум температуры воздуха на высоте 2 м над землей.
Tmax - Максимальная температура - максимум температуры воздуха на высоте 2 м над землей.
R - Количество осадков - Количество выпавших осадков за период времени, мм. При наведении курсора мыши на число - период времени, за который выпало указанное количество осадков.
R24 - Количество осадков - Количество выпавших осадков за 24 часа, мм.
S - Снежный покров - Высота снежного покрова, см. При наведении курсора мыши на число - состояние снежного покрова и степень покрытия местности в баллах.